Location: Krasnoyarskiy Pitomnik
(51.1333°N, 71.6167°E)
Time: 00:58:05
(UTC+00:00)

Courier 1B Rocket - Pass Details

Date: 26 April 2024
Orbit: 920 x 1201 km, 28.2° (Epoch: 19 May)

Event Time Altitude Azimuth Distance (km) Brightness Sun altitude
Exits shadow 22:46:19 - 208° (SSW) 3,252 7.2 -9.9°
Reaches altitude 10° 22:47:34 10° 199° (SSW) 3,100 7.1 -9.8°
Maximum altitude 22:49:46 11° 182° (S) 2,977 7.2 -9.5°
Drops below altitude 10° 22:51:58 10° 165° (SSE) 3,063 7.4 -9.2°
Sets 22:57:14 0° 134° (SE) 3,963 8.3 -8.6°
